Location: アルンシュタイン
(50.0000°N, 10.0000°E)
Time: 16:58:18
(UTC+02:00)

Vanguard 1 - Pass Details

Date: 20 September 2024
Orbit: 649 x 3825 km, 34.3° (Epoch: 02 October)

Event Time Altitude Azimuth Distance (km) Brightness Sun altitude
Rises 12:09:54 0° 227° (SW) 7,247 14.7 39.0°
Reaches altitude 10° 12:16:15 10° 218° (SW) 5,736 14.5 39.3°
Maximum altitude 12:28:24 28° 169° (SSE) 3,284 14.9 39.9°
Drops below altitude 10° 12:36:11 10° 115° (ESE) 3,590 13.5 40.2°
Sets 12:39:05 0° 103° (ESE) 4,214 13.6 40.3°
